Wind_Speed
5 5 5 6 6 6 5 5 5 5 6 7 7 7 8 8 9 10 10 10 10 10 11 11 11 11 12 12 13 13 12 12 11 11 11 11 11 10 10 10 10 9 9
6 6 6 6 6 6 7 7 7 7 7 7 7 8 9 9 9 10 10 10 10 10 10 11 11 12 12 12 12 13 12 12 12 11 11 11 11 11 10 11 11 10 10
6 6 6 7 7 7 8 8 8 8 8 8 8 9 9 10 10 11 11 11 10 10 10 10 10 11 11 12 13 12 12 12 12 12 11 11 11 11 11 11 11 11 11
6 6 7 8 8 8 8 8 8 8 8 8 8 9 9 9 9 10 9 9 10 10 10 10 10 10 11 11 12 12 11 12 12 12 12 11 11 12 12 12 12 12 12
6 7 7 8 8 8 9 8 8 8 8 8 8 9 9 9 9 8 7 7 8 8 9 10 10 11 11 11 12 11 11 10 11 11 11 11 11 11 11 11 12 12 12
7 8 8 8 8 8 9 8 8 7 8 8 8 8 9 9 8 8 7 7 7 8 9 9 10 11 11 12 11 11 11 11 11 11 10 10 10 10 11 11 12 12 12
8 8 8 9 8 8 8 8 8 8 8 8 8 8 9 9 8 8 8 8 9 9 9 10 10 11 10 11 11 11 11 12 12 11 11 10 10 11 11 13 13 14 14
8 8 9 9 9 9 8 9 9 9 9 9 9 10 9 9 9 8 8 9 9 9 9 10 10 11 11 11 12 12 12 12 11 11 11 11 11 12 13 13 14 14 15
8 9 9 9 9 9 9 9 9 10 10 11 12 12 12 11 10 9 9 9 9 10 10 10 10 12 12 12 13 12 12 12 12 12 12 11 12 12 12 13 12 12 12
10 10 9 9 10 10 11 11 11 11 12 12 13 13 12 12 11 10 9 9 10 11 11 11 12 13 12 12 13 13 13 12 12 12 12 12 12 12 13 12 11 10 10
10 10 10 11 11 11 12 13 12 12 13 13 13 13 13 13 13 12 12 12 12 12 12 13 13 13 12 12 12 12 12 12 12 12 12 12 12 12 12 11 10 10 10
12 13 12 13 13 13 13 13 13 13 13 13 13 13 13 13 13 13 13 12 13 13 13 13 13 14 14 13 12 12 11 12 12 12 12 12 12 12 12 11 11 11 11
14 14 14 14 13 14 15 14 14 14 14 14 14 14 14 14 15 14 14 14 14 14 14 14 14 14 14 13 13 12 12 12 12 12 12 13 13 13 13 12 12 12 12
15 15 15 15 15 15 15 16 16 15 15 15 16 16 16 16 16 16 16 16 16 16 16 15 15 14 14 14 14 13 13 13 13 13 13 13 14 14 14 13 12 12 12
17 17 16 16 16 16 16 16 16 16 16 16 17 17 17 17 17 17 17 17 16 16 16 16 15 15 15 15 14 14 14 14 14 14 14 14 14 14 14 13 13 13 14
19 18 18 18 18 18 18 17 17 17 17 17 17 17 18 17 17 17 18 18 17 17 16 16 15 15 15 15 15 15 15 15 15 16 16 16 16 16 15 15 15 15 16
20 19 19 19 19 19 19 19 18 18 18 18 18 18 19 18 18 18 18 18 18 18 17 17 16 16 16 17 17 17 17 17 17 17 17 17 17 17 17 17 18 18 18
21 21 21 20 20 20 20 20 20 19 19 19 19 19 19 19 19 19 19 19 19 19 18 19 19 18 18 18 18 18 19 19 18 18 18 18 19 18 19 19 19 20 19
22 22 22 21 21 21 22 22 21 21 21 21 20 20 20 20 21 21 21 20 20 21 20 20 20 20 20 20 20 20 20 20 20 19 19 19 19 20 20 20 20 20 21
23 24 23 23 23 23 23 23 23 23 22 22 22 22 22 22 22 22 22 22 23 22 22 21 21 21 21 21 21 21 21 21 21 21 21 21 21 21 21 22 22 22 22
25 25 25 25 25 24 24 23 23 23 23 23 23 23 23 23 23 23 23 23 23 23 23 23 22 22 22 23 23 23 23 22 22 23 23 23 23 23 23 24 24 23 23
26 26 26 26 26 26 26 25 24 24 24 24 24 24 24 24 24 24 24 23 23 23 24 24 24 24 23 24 24 24 24 24 24 24 24 24 25 25 25 25 25 25 25
27 27 27 27 27 26 26 26 26 26 26 26 26 26 25 25 25 25 25 24 24 25 25 25 26 26 25 25 25 25 26 27 26 26 26 25 26 26 26 26 27 27 27
28 28 28 28 28 27 27 26 26 26 26 27 27 26 26 26 25 25 25 25 26 26 26 26 27 26 26 27 27 27 27 28 28 28 28 27 27 27 27 27 27 27 27
29 29 29 29 29 28 28 27 27 27 27 28 27 27 27 27 27 26 26 26 27 27 27 27 28 28 28 28 29 28 28 29 29 29 29 28 28 28 28 28 28 27 26
31 31 30 30 30 29 29 29 29 29 28 28 29 29 28 28 28 28 28 28 28 28 28 28 28 28 29 29 29 29 30 30 29 29 28 28 29 28 28 28 28 28 28
Wind_Direction
291 297 299 297 302 305 308 313 312 302 297 300 298 298 297 293 292 291 291 285 284 286 285 282 280 277 277 279 281 278 278 281 284 284 281 280 278 275 276 275 274 270 267
291 296 301 301 302 303 302 308 311 306 302 302 302 298 300 297 296 295 288 282 281 283 284 288 288 282 282 282 282 281 278 282 284 285 281 279 281 280 277 275 273 275 272
287 294 305 308 305 305 306 308 309 310 308 310 311 306 308 308 305 299 293 284 280 279 281 284 288 287 285 284 284 284 279 280 283 283 279 278 279 280 282 280 278 275 274
297 302 308 310 312 313 315 314 312 316 313 311 314 311 308 310 312 306 302 294 286 282 281 283 285 287 286 283 285 284 284 283 282 283 282 278 280 282 281 279 277 274 273
307 311 315 315 316 316 318 318 315 313 309 310 317 310 310 315 318 313 308 300 292 291 288 288 289 290 289 289 290 289 292 294 290 287 287 283 282 283 279 277 277 276 274
324 323 322 321 317 316 319 320 313 312 312 316 317 312 311 311 311 312 308 297 291 292 291 292 290 290 290 292 291 294 296 295 292 290 289 290 286 284 281 278 277 274 271
324 322 323 325 324 320 317 318 316 314 313 317 315 314 313 314 307 301 300 295 293 296 296 290 288 290 287 290 290 293 294 290 288 287 288 287 284 282 280 279 278 274 269
324 322 320 321 323 321 320 321 322 321 317 318 315 311 313 313 305 299 297 297 298 299 296 294 288 286 289 286 288 292 295 292 289 287 288 289 286 284 283 283 280 273 267
320 323 323 323 320 318 318 315 314 314 312 312 313 311 311 313 309 304 297 296 297 298 295 292 288 291 292 289 290 290 291 290 289 289 287 288 287 284 286 288 287 278 269
317 316 317 317 317 315 314 312 309 304 303 305 307 309 310 311 312 305 301 298 298 301 301 300 298 295 292 291 293 292 292 291 290 290 288 287 287 288 291 289 288 280 272
309 309 310 311 312 313 310 309 307 302 299 298 301 304 305 306 309 306 301 301 302 305 305 300 301 299 293 292 295 294 293 293 291 289 289 288 289 292 292 288 285 281 274
302 301 302 304 304 305 306 307 306 304 301 299 300 301 301 301 302 303 299 301 303 303 303 298 299 302 299 296 297 295 295 293 293 291 290 289 290 291 291 287 282 279 277
304 302 303 302 302 303 301 301 302 302 302 299 298 298 297 298 299 299 297 297 298 302 302 300 298 299 298 297 297 296 296 294 291 289 289 290 290 291 292 289 283 282 278
308 305 302 299 300 304 305 304 299 299 300 298 295 294 294 295 297 297 296 296 297 298 299 297 294 294 295 295 294 294 296 295 289 288 288 289 287 288 289 287 282 282 281
309 307 301 299 301 305 307 310 309 303 301 299 299 295 293 294 295 297 296 294 293 293 295 294 292 292 293 292 294 297 298 297 292 289 288 288 289 288 287 285 284 279 278
303 302 302 302 302 302 303 304 305 304 302 300 299 296 292 291 293 294 294 294 291 289 288 290 290 291 293 294 294 295 295 294 292 291 290 288 287 286 288 289 285 283 279
299 299 298 299 299 300 300 301 302 300 299 299 299 299 295 293 293 292 292 291 290 290 289 288 288 289 290 292 292 292 294 292 290 289 288 287 285 285 287 286 285 285 283
296 296 294 295 296 297 297 297 298 297 298 299 298 298 298 294 293 291 292 291 290 290 290 288 286 286 286 287 287 288 290 291 290 289 288 285 283 284 287 285 283 282 282
295 295 294 294 294 294 294 293 293 293 295 295 296 295 296 294 291 289 288 288 288 288 287 286 285 286 286 285 286 287 288 289 288 288 288 285 284 284 284 283 283 281 280
292 292 293 294 294 294 294 293 291 290 291 292 292 292 292 291 290 289 287 286 285 286 285 285 285 286 287 287 287 286 286 287 286 285 286 285 286 286 285 284 282 280 279
291 290 291 292 293 293 294 295 293 291 290 290 290 291 290 288 288 288 287 287 286 285 284 284 285 285 286 286 287 286 286 286 286 284 283 283 284 285 284 283 281 280 279
291 290 291 291 292 292 293 293 292 291 290 289 289 289 290 288 286 285 285 286 286 285 284 283 283 284 284 285 285 285 286 286 286 285 284 283 283 282 282 281 281 280 279
291 290 290 290 290 290 290 291 291 290 290 289 288 287 287 287 285 283 284 284 284 284 284 284 284 283 283 284 285 284 284 284 283 284 284 284 284 282 280 281 281 280 279
289 288 288 289 289 289 288 287 289 290 290 289 288 287 286 288 286 284 283 283 283 284 285 284 285 284 284 284 285 285 284 283 282 282 282 283 283 283 282 282 282 280 278
287 287 287 287 289 289 286 285 286 289 289 288 288 287 286 287 286 285 283 282 284 284 284 285 284 284 284 284 284 285 285 285 284 283 282 281 281 281 282 283 282 282 280
288 287 286 286 288 289 287 285 285 286 287 287 287 287 286 285 284 283 283 283 284 283 283 284 284 284 283 283 283 284 285 285 284 284 283 282 282 282 283 282 282 281 281
Height
5885 5885 5885 5885 5884 5884 5883 5883 5882 5882 5882 5882 5882 5881 5881 5880 5879 5879 5878 5878 5878 5878 5879 5879 5880 5880 5880 5880 5880 5880 5880 5880 5880 5879 5879 5879 5879 5879 5879 5879 5880 5880 5880
5884 5884 5884 5884 5884 5883 5883 5882 5882 5881 5881 5880 5880 5880 5879 5877 5876 5875 5875 5874 5875 5876 5876 5877 5878 5878 5878 5878 5878 5878 5878 5877 5877 5877 5877 5877 5877 5877 5877 5877 5877 5878 5878
5884 5884 5884 5883 5883 5883 5882 5881 5881 5880 5879 5879 5879 5878 5877 5876 5874 5872 5871 5871 5871 5873 5874 5875 5875 5875 5875 5875 5875 5875 5875 5875 5875 5874 5874 5874 5874 5874 5874 5874 5875 5875 5875
5883 5883 5883 5883 5882 5882 5881 5880 5879 5879 5879 5878 5877 5876 5875 5874 5872 5869 5868 5868 5869 5871 5872 5872 5873 5873 5873 5873 5873 5872 5872 5872 5872 5872 5872 5872 5872 5871 5871 5871 5872 5872 5872
5883 5883 5882 5882 5882 5881 5880 5879 5879 5878 5878 5877 5875 5874 5873 5872 5870 5868 5867 5867 5868 5869 5870 5870 5871 5871 5871 5871 5870 5870 5869 5869 5869 5869 5869 5869 5869 5869 5868 5868 5869 5869 5869
5883 5882 5882 5881 5880 5880 5879 5878 5878 5877 5876 5875 5874 5873 5872 5871 5870 5869 5868 5867 5868 5868 5868 5869 5869 5868 5868 5868 5868 5867 5867 5867 5867 5867 5866 5866 5866 5866 5865 5865 5865 5865 5866
5882 5882 5881 5880 5879 5879 5878 5877 5877 5876 5875 5874 5873 5872 5871 5869 5868 5868 5867 5867 5867 5867 5867 5867 5866 5866 5865 5866 5865 5865 5864 5864 5864 5864 5863 5863 5863 5863 5862 5862 5861 5861 5861
5882 5881 5880 5879 5879 5878 5877 5876 5875 5875 5874 5873 5872 5871 5870 5869 5868 5867 5866 5866 5866 5865 5864 5864 5864 5864 5863 5863 5863 5862 5862 5861 5861 5861 5860 5860 5860 5860 5859 5858 5856 5855 5856
5881 5880 5879 5878 5877 5877 5876 5875 5874 5873 5873 5872 5870 5870 5869 5867 5866 5866 5865 5864 5864 5864 5863 5862 5861 5861 5861 5860 5860 5860 5859 5859 5858 5858 5858 5857 5857 5856 5855 5853 5852 5851 5851
5879 5878 5878 5877 5876 5875 5874 5873 5872 5872 5871 5870 5869 5868 5867 5865 5865 5864 5863 5862 5862 5861 5860 5860 5859 5858 5858 5858 5857 5857 5856 5856 5855 5855 5854 5854 5853 5853 5852 5851 5850 5848 5849
5877 5877 5876 5875 5874 5873 5872 5871 5870 5869 5868 5868 5867 5866 5865 5864 5863 5862 5861 5860 5860 5859 5858 5857 5857 5856 5855 5855 5855 5854 5853 5853 5852 5852 5851 5851 5850 5850 5849 5848 5847 5847 5847
5876 5875 5874 5873 5872 5871 5870 5869 5868 5867 5866 5865 5864 5863 5862 5862 5860 5859 5859 5858 5857 5857 5856 5855 5854 5853 5853 5852 5851 5851 5850 5850 5849 5848 5848 5847 5847 5846 5846 5845 5845 5845 5845
5873 5872 5871 5870 5869 5868 5867 5866 5865 5864 5863 5862 5861 5860 5859 5859 5858 5857 5856 5855 5855 5854 5853 5852 5851 5851 5850 5849 5848 5848 5847 5846 5846 5845 5845 5844 5843 5843 5843 5842 5842 5842 5842
5871 5869 5869 5868 5867 5865 5864 5863 5862 5861 5860 5859 5858 5857 5856 5855 5855 5854 5853 5852 5851 5851 5850 5849 5848 5847 5847 5846 5845 5844 5843 5843 5842 5842 5841 5841 5840 5839 5839 5839 5838 5838 5838
5868 5866 5865 5864 5863 5862 5861 5860 5859 5857 5857 5856 5854 5853 5852 5851 5850 5850 5849 5848 5848 5847 5846 5845 5844 5843 5843 5842 5841 5840 5840 5839 5838 5838 5837 5837 5836 5836 5835 5835 5834 5834 5834
5864 5863 5862 5861 5860 5859 5858 5857 5855 5854 5853 5852 5851 5849 5848 5847 5846 5845 5845 5844 5843 5842 5842 5841 5840 5840 5839 5839 5838 5837 5836 5835 5834 5834 5833 5832 5832 5831 5831 5831 5830 5830 5829
5860 5859 5858 5857 5856 5855 5854 5852 5851 5850 5849 5848 5846 5845 5843 5842 5841 5841 5840 5839 5839 5838 5837 5836 5836 5835 5835 5834 5834 5833 5832 5831 5830 5829 5828 5828 5827 5827 5826 5826 5825 5825 5824
5856 5854 5853 5852 5851 5850 5849 5848 5847 5845 5844 5843 5842 5840 5839 5838 5837 5836 5835 5835 5834 5833 5833 5832 5831 5830 5830 5829 5828 5828 5827 5826 5825 5824 5823 5823 5822 5821 5821 5820 5820 5819 5818
5851 5849 5848 5847 5846 5845 5844 5842 5841 5840 5839 5837 5836 5835 5834 5833 5832 5831 5830 5829 5828 5827 5827 5827 5826 5825 5824 5823 5823 5822 5821 5820 5819 5818 5818 5817 5816 5816 5815 5814 5814 5813 5812
5846 5844 5843 5842 5840 5839 5838 5837 5835 5834 5833 5831 5830 5829 5828 5827 5825 5824 5824 5823 5822 5821 5821 5820 5820 5819 5818 5817 5816 5815 5815 5814 5813 5813 5812 5811 5810 5810 5809 5808 5808 5807 5806
5840 5838 5837 5836 5834 5833 5832 5830 5829 5827 5826 5825 5824 5823 5821 5820 5819 5818 5817 5816 5815 5815 5815 5814 5814 5813 5812 5811 5810 5809 5808 5807 5807 5806 5805 5804 5804 5803 5802 5801 5800 5799 5799
5833 5832 5830 5829 5828 5826 5825 5823 5822 5821 5819 5818 5817 5816 5815 5813 5812 5811 5809 5809 5808 5808 5808 5807 5807 5806 5805 5804 5803 5802 5802 5801 5800 5799 5798 5797 5796 5795 5794 5793 5792 5791 5791
5826 5825 5823 5822 5820 5819 5817 5816 5815 5813 5812 5811 5810 5809 5808 5806 5805 5804 5803 5801 5801 5801 5800 5800 5799 5799 5798 5797 5796 5795 5794 5793 5792 5791 5790 5790 5788 5787 5786 5785 5784 5783 5782
5819 5817 5816 5814 5813 5811 5810 5809 5807 5806 5805 5803 5802 5801 5800 5799 5798 5797 5796 5795 5794 5793 5792 5792 5792 5791 5789 5788 5788 5787 5786 5785 5784 5783 5781 5781 5780 5779 5778 5777 5775 5774 5774
5811 5809 5808 5807 5805 5804 5802 5801 5799 5798 5797 5796 5794 5793 5792 5791 5790 5789 5788 5787 5786 5785 5784 5783 5783 5782 5781 5780 5779 5778 5777 5776 5775 5774 5773 5772 5771 5770 5769 5768 5767 5766 5765
5802 5801 5799 5798 5797 5796 5794 5793 5791 5790 5789 5788 5786 5785 5784 5783 5782 5781 5780 5779 5778 5777 5776 5775 5774 5773 5772 5771 5770 5769 5768 5767 5766 5765 5764 5763 5762 5761 5761 5760 5758 5757 5756